This is the latest recevied weather packets stored in our database for station/object DL8BNG-13. If no packets are shown the sender has not sent any weather packets the latest 10 day(s).
| Time | Temp. | Humidity | Pressure | Rain* | Wind** | Luminosity | Snow |
|---|---|---|---|---|---|---|---|
| 1788244203 | 15° C | 89% | - | 0.25 mm | - | - | - |
| 1788243302 | 14.44° C | 91% | - | 0.25 mm | - | - | - |
| 1788242402 | 14.44° C | 91% | - | 0.25 mm | - | - | - |
| 1788241502 | 13.89° C | 92% | - | 0.25 mm | - | - | - |
| 1788240603 | 13.33° C | 92% | - | 0.25 mm | - | - | - |
| 1788239702 | 13.33° C | 92% | - | 0.25 mm | - | - | - |
| 1788238803 | 12.78° C | 92% | - | 0.25 mm | - | - | - |
| 1788237903 | 12.78° C | 92% | - | 0.25 mm | - | - | - |
| 1788221703 | 13.89° C | 90% | - | 0 mm | - | - | - |
| 1788215407 | 15° C | 89% | - | 0 mm | - | - | - |
| 1788214505 | 15° C | 89% | - | 0 mm | - | - | - |
| 1788213603 | 15° C | 89% | - | 13.72 mm | - | - | - |
| 1788211803 | 15° C | 88% | - | 13.72 mm | - | - | - |
| 1788210902 | 15.56° C | 87% | - | 13.72 mm | - | - | - |
| 1788210003 | 15.56° C | 87% | - | 13.72 mm | - | - | - |
| 1788207303 | 16.11° C | 86% | - | 11.68 mm | - | - | - |
| 1788206403 | 16.11° C | 86% | - | 11.68 mm | - | - | - |
| 1788205502 | 16.11° C | 86% | - | 11.68 mm | - | - | - |
| 1788204602 | 16.11° C | 86% | - | 10.16 mm | - | - | - |
| 1788203702 | 16.11° C | 85% | - | 7.87 mm | - | - | - |
| 1788201002 | 16.11° C | 83% | - | 7.87 mm | - | - | - |
| 1788200102 | 16.67° C | 83% | - | 7.87 mm | - | - | - |
| 1788197402 | 16.67° C | 77% | - | 6.86 mm | - | - | - |
| 1788196502 | 17.22° C | 76% | - | 6.86 mm | - | - | - |
| 1788195603 | 17.78° C | 75% | - | 6.86 mm | - | - | - |
* Rain since midnight (hover to see other rain measurements)
** Current wind speed in m/s (hover to see current wind gust speed)